,,Stat6,,Stat2,,Stat8,,Stat9,,Stat10,,Wind1,,Wind1,
time,status,PA1M_AVG,status,PR1M_SUM,status,RH1M_AVG,status,SR1M_AVG,status,TA1M_AVG,status,W1dAve1m,status,W1sAve1m,
2009-03-08, 00:00:00,VALID,917.374,VALID,0,VALID,100,VALID,-0.101885,VALID,18.4091,VALID,6,VALID,0,
2009-03-08, 00:01:00,VALID,917.385,VALID,0,VALID,100,VALID,-0.0849042,VALID,18.4059,VALID,358,VALID,0,
2009-03-08, 00:02:00,VALID,917.369,VALID,0,VALID,100,VALID,-0.0849042,VALID,18.4416,VALID,358,VALID,0,
2009-03-08, 00:03:00,VALID,917.348,VALID,0,VALID,100,VALID,-0.101885,VALID,18.4094,VALID,358,VALID,0,
2009-03-08, 00:04:00,VALID,917.339,VALID,0,VALID,100,VALID,-0.118866,VALID,18.3253,VALID,358,VALID,0,
2009-03-08, 00:05:00,VALID,917.339,VALID,0,VALID,100,VALID,-0.118866,VALID,18.361,VALID,353,VALID,0,
2009-03-08, 00:06:00,VALID,917.342,VALID,0,VALID,100,VALID,-0.101885,VALID,18.4061,VALID,327,VALID,0,
2009-03-08, 00:07:00,VALID,917.336,VALID,0,VALID,100,VALID,-0.101885,VALID,18.4413,VALID,327,VALID,0,
2009-03-08, 00:08:00,VALID,917.353,VALID,0,VALID,100,VALID,-0.0339617,VALID,18.4668,INVALID,360,VALID,0,
2009-03-08, 00:09:00,VALID,917.364,VALID,0,VALID,100,VALID,0,VALID,18.3918,INVALID,360,VALID,0,
2009-03-08, 00:10:00,VALID,917.361,VALID,0,VALID,100,VALID,0,VALID,18.3494,INVALID,360,VALID,0,
2009-03-08, 00:11:00,VALID,917.339,VALID,0,VALID,100,VALID,0.0169808,VALID,18.3234,INVALID,360,VALID,0,
2009-03-08, 00:12:00,VALID,917.325,VALID,0,VALID,100,VALID,0.0169808,VALID,18.3429,INVALID,360,VALID,0,
2009-03-08, 00:13:00,VALID,917.321,VALID,0,VALID,100,VALID,0.0169808,VALID,18.3948,INVALID,360,VALID,0,
2009-03-08, 00:14:00,VALID,917.331,VALID,0,VALID,100,VALID,0.0339617,VALID,18.4434,VALID,326,VALID,0,
2009-03-08, 00:15:00,VALID,917.317,VALID,0,VALID,100,VALID,0.0169808,VALID,18.4856,VALID,326,VALID,0,
2009-03-08, 00:16:00,VALID,917.307,VALID,0,VALID,100,VALID,0.0169808,VALID,18.5213,VALID,326,VALID,0,
2009-03-08, 00:17:00,VALID,917.286,VALID,0,VALID,100,VALID,0.0169808,VALID,18.5634,VALID,326,VALID,0,
2009-03-08, 00:18:00,VALID,917.263,VALID,0,VALID,99.6897,VALID,0.0169808,VALID,18.408,VALID,54,VALID,0,
2009-03-08, 00:19:00,VALID,917.266,VALID,0,VALID,99.9624,VALID,0.0169808,VALID,18.3656,VALID,47,VALID,0,
2009-03-08, 00:20:00,VALID,917.255,VALID,0,VALID,100,VALID,0.0169808,VALID,18.4694,VALID,24,VALID,0,
2009-03-08, 00:21:00,VALID,917.263,VALID,0,VALID,100,VALID,0.0169808,VALID,18.4923,VALID,18,VALID,0,
2009-03-08, 00:22:00,VALID,917.275,VALID,0,VALID,100,VALID,0,VALID,18.4497,VALID,18,VALID,0,
2009-03-08, 00:23:00,VALID,917.281,VALID,0,VALID,100,VALID,0,VALID,18.4497,VALID,16,VALID,0,
2009-03-08, 00:24:00,VALID,917.281,VALID,0,VALID,100,VALID,0,VALID,18.5048,VALID,345,VALID,0,
2009-03-08, 00:25:00,VALID,917.284,VALID,0,VALID,100,VALID,-0.0169808,VALID,18.5796,VALID,345,VALID,0,
2009-03-08, 00:26:00,VALID,917.275,VALID,0,VALID,100,VALID,0,VALID,18.6021,VALID,345,VALID,0,
2009-03-08, 00:27:00,VALID,917.273,VALID,0,VALID,100,VALID,0,VALID,18.6413,VALID,345,VALID,0,
2009-03-08, 00:28:00,VALID,917.239,VALID,0,VALID,100,VALID,0,VALID,18.6705,VALID,345,VALID,0,
2009-03-08, 00:29:00,VALID,917.211,VALID,0,VALID,99.895,VALID,0.0339617,VALID,18.6607,VALID,352,VALID,0,
2009-03-08, 00:30:00,VALID,917.21,VALID,0,VALID,99.4814,VALID,0,VALID,18.5412,VALID,358,VALID,0,
2009-03-08, 00:31:00,VALID,917.22,VALID,0,VALID,99.6175,VALID,0.0169808,VALID,18.4691,VALID,358,VALID,0,
2009-03-08, 00:32:00,VALID,917.227,VALID,0,VALID,99.8812,VALID,0.0169808,VALID,18.4404,VALID,358,VALID,0,
2009-03-08, 00:33:00,VALID,917.222,VALID,0,VALID,100,VALID,0,VALID,18.4566,VALID,358,VALID,0,
2009-03-08, 00:34:00,VALID,917.218,VALID,0,VALID,100,VALID,0.0169808,VALID,18.4953,VALID,308,VALID,0,
2009-03-08, 00:35:00,VALID,917.196,VALID,0,VALID,100,VALID,-0.0169808,VALID,18.5474,VALID,306,VALID,0,
2009-03-08, 00:36:00,VALID,917.2,VALID,0,VALID,99.88,VALID,-0.0169808,VALID,18.5213,VALID,306,VALID,0,
2009-03-08, 00:37:00,VALID,917.18,VALID,0,VALID,99.5043,VALID,0,VALID,18.4434,VALID,306,VALID,0,
2009-03-08, 00:38:00,VALID,917.17,VALID,0,VALID,99.5616,VALID,-0.0339617,VALID,18.3823,VALID,306,VALID,0,
2009-03-08, 00:39:00,VALID,917.161,VALID,0,VALID,99.7485,VALID,-0.0679233,VALID,18.3436,VALID,306,VALID,0,
2009-03-08, 00:40:00,VALID,917.148,VALID,0,VALID,99.8576,VALID,-0.0509425,VALID,18.3176,VALID,306,VALID,0,
2009-03-08, 00:41:00,VALID,917.154,VALID,0,VALID,100,VALID,-0.0679233,VALID,18.3044,VALID,306,VALID,0,
2009-03-08, 00:42:00,VALID,917.133,VALID,0,VALID,99.9804,VALID,-0.0679233,VALID,18.3047,VALID,306,VALID,0,
2009-03-08, 00:43:00,VALID,917.102,VALID,0,VALID,100,VALID,-0.0509425,VALID,18.3406,VALID,307,VALID,0,
2009-03-08, 00:44:00,VALID,917.083,VALID,0,VALID,100,VALID,-0.0509425,VALID,18.2852,VALID,359,VALID,0,
2009-03-08, 00:45:00,VALID,917.059,VALID,0,VALID,99.528,VALID,-0.0509425,VALID,18.123,VALID,25,VALID,0,
2009-03-08, 00:46:00,VALID,917.034,VALID,0,VALID,100,VALID,-0.0169808,VALID,18.1557,VALID,18,VALID,0,
2009-03-08, 00:47:00,VALID,917.034,VALID,0,VALID,100,VALID,-0.0509425,VALID,18.1719,VALID,18,VALID,0,
2009-03-08, 00:48:00,VALID,917.049,VALID,0,VALID,100,VALID,-0.0509425,VALID,18.1657,VALID,353,VALID,0,
2009-03-08, 00:49:00,VALID,917.05,VALID,0,VALID,100,VALID,-0.0509425,VALID,18.1914,VALID,287,VALID,0,
2009-03-08, 00:50:00,VALID,917.043,VALID,0,VALID,100,VALID,-0.101885,VALID,18.2667,VALID,266,VALID,0,
2009-03-08, 00:51:00,VALID,917.048,VALID,0,VALID,100,VALID,-0.0339617,VALID,18.2922,VALID,266,VALID,0,
2009-03-08, 00:52:00,VALID,917.046,VALID,0,VALID,100,VALID,-0.0169808,VALID,18.2882,VALID,267,VALID,0,
2009-03-08, 00:53:00,VALID,917.043,VALID,0,VALID,100,VALID,-0.0339617,VALID,18.2722,VALID,267,VALID,0,
2009-03-08, 00:54:00,VALID,917.035,VALID,0,VALID,100,VALID,-0.0679233,VALID,18.2787,VALID,267,VALID,0,
2009-03-08, 00:55:00,VALID,917.033,VALID,0,VALID,100,VALID,-0.0849042,VALID,18.2657,VALID,267,VALID,0,
2009-03-08, 00:56:00,VALID,917.021,VALID,0,VALID,100,VALID,-0.0509425,VALID,18.2495,VALID,282,VALID,0,
2009-03-08, 00:57:00,VALID,917.009,VALID,0,VALID,100,VALID,-0.0679233,VALID,18.1817,VALID,301,VALID,0,
2009-03-08, 00:58:00,VALID,916.995,VALID,0,VALID,100,VALID,-0.0339617,VALID,18.1847,VALID,318,VALID,0,
2009-03-08, 00:59:00,VALID,916.996,VALID,0,VALID,100,VALID,-0.0339617,VALID,18.2171,VALID,359,VALID,0,
2009-03-08, 01:00:00,VALID,916.991,VALID,0,VALID,100,VALID,-0.0509425,VALID,18.2465,VALID,359,VALID,0,
2009-03-08, 01:01:00,VALID,916.99,VALID,0,VALID,100,VALID,-0.0509425,VALID,18.2787,VALID,359,VALID,0,
2009-03-08, 01:02:00,VALID,916.975,VALID,0,VALID,100,VALID,-0.0509425,VALID,18.2817,VALID,359,VALID,0,
2009-03-08, 01:03:00,VALID,916.945,VALID,0,VALID,100,VALID,-0.0679233,VALID,18.3014,VALID,359,VALID,0,
2009-03-08, 01:04:00,VALID,916.924,VALID,0,VALID,99.9344,VALID,-0.0849042,VALID,18.3142,VALID,358,VALID,0,
2009-03-08, 01:05:00,VALID,916.876,VALID,0,VALID,99.9634,VALID,-0.0339617,VALID,18.2785,VALID,314,VALID,0,
2009-03-08, 01:06:00,VALID,916.844,VALID,0,VALID,100,VALID,-0.0679233,VALID,18.3308,VALID,325,VALID,0,
2009-03-08, 01:07:00,VALID,916.806,VALID,0,VALID,100,VALID,-0.0679233,VALID,18.3433,VALID,348,VALID,0,
2009-03-08, 01:08:00,VALID,916.76,VALID,0,VALID,99.9133,VALID,-0.0339617,VALID,18.3271,VALID,13,VALID,0,
2009-03-08, 01:09:00,VALID,916.743,VALID,0,VALID,100,VALID,-0.0509425,VALID,18.3498,VALID,4,VALID,0,
2009-03-08, 01:10:00,VALID,916.714,VALID,0,VALID,100,VALID,-0.0679233,VALID,18.4119,VALID,354,VALID,0,
2009-03-08, 01:11:00,VALID,916.697,VALID,0,VALID,100,VALID,-0.0509425,VALID,18.4506,VALID,354,VALID,0,
2009-03-08, 01:12:00,VALID,916.685,VALID,0,VALID,99.9596,VALID,-0.0169808,VALID,18.5088,VALID,5,VALID,0,
2009-03-08, 01:13:00,VALID,916.678,VALID,0,VALID,99.25,VALID,-0.0679233,VALID,18.4539,VALID,32,VALID,0,
2009-03-08, 01:14:00,VALID,916.664,VALID,0,VALID,99.3441,VALID,-0.0509425,VALID,18.4182,VALID,35,VALID,0,
2009-03-08, 01:15:00,VALID,916.657,VALID,0,VALID,99.6226,VALID,-0.0339617,VALID,18.4149,VALID,34,VALID,0,
2009-03-08, 01:16:00,VALID,916.654,VALID,0,VALID,99.6722,VALID,-0.0509425,VALID,18.4024,VALID,34,VALID,0,
2009-03-08, 01:17:00,VALID,916.646,VALID,0,VALID,100,VALID,-0.0849042,VALID,18.4277,VALID,34,VALID,0,
2009-03-08, 01:18:00,VALID,916.625,VALID,0,VALID,100,VALID,-0.0339617,VALID,18.4569,VALID,34,VALID,0,
2009-03-08, 01:19:00,VALID,916.614,VALID,0,VALID,99.9728,VALID,-0.0679233,VALID,18.4768,VALID,34,VALID,0,
2009-03-08, 01:20:00,VALID,916.593,VALID,0,VALID,99.9804,VALID,-0.0339617,VALID,18.48,VALID,34,VALID,0,
2009-03-08, 01:21:00,VALID,916.595,VALID,0,VALID,99.2411,VALID,-0.0849042,VALID,18.4603,VALID,34,VALID,0,
2009-03-08, 01:22:00,VALID,916.597,VALID,0,VALID,98.4235,VALID,-0.0169808,VALID,18.2887,VALID,34,VALID,0,
2009-03-08, 01:23:00,VALID,916.606,VALID,0,VALID,98.7337,VALID,0,VALID,18.2169,VALID,34,VALID,0,
2009-03-08, 01:24:00,VALID,916.614,VALID,0,VALID,98.8825,VALID,0,VALID,18.1483,VALID,34,VALID,0,
2009-03-08, 01:25:00,VALID,916.598,VALID,0,VALID,99.1864,VALID,0.0509425,VALID,18.1024,VALID,34,VALID,0,
2009-03-08, 01:26:00,VALID,916.595,VALID,0,VALID,99.1216,VALID,0.0339617,VALID,17.9788,VALID,28,VALID,0,
2009-03-08, 01:27:00,VALID,916.592,VALID,0,VALID,99.9761,VALID,0.0509425,VALID,17.9755,VALID,10,VALID,0,
2009-03-08, 01:28:00,VALID,916.587,VALID,0,VALID,100,VALID,0.0849042,VALID,18.0663,VALID,348,VALID,0,
2009-03-08, 01:29:00,VALID,916.563,VALID,0,VALID,100,VALID,0.0679233,VALID,18.1279,VALID,5,VALID,0,
2009-03-08, 01:30:00,VALID,916.53,VALID,0,VALID,99.8347,VALID,0.0849042,VALID,18.0987,VALID,357,VALID,0,
2009-03-08, 01:31:00,VALID,916.504,VALID,0,VALID,99.751,VALID,0.0679233,VALID,18.0533,VALID,9,VALID,0,
2009-03-08, 01:32:00,VALID,916.495,VALID,0,VALID,100,VALID,0.0849042,VALID,18.0631,VALID,12,VALID,0,
2009-03-08, 01:33:00,VALID,916.487,VALID,0,VALID,100,VALID,0.0679233,VALID,18.089,VALID,12,VALID,0,
2009-03-08, 01:34:00,VALID,916.456,VALID,0,VALID,100,VALID,0.0339617,VALID,18.1018,VALID,12,VALID,0,
2009-03-08, 01:35:00,VALID,916.433,VALID,0,VALID,100,VALID,0.0339617,VALID,18.1409,VALID,12,VALID,0,
2009-03-08, 01:36:00,VALID,916.412,VALID,0,VALID,100,VALID,0.0509425,VALID,18.1928,VALID,3,VALID,0,
2009-03-08, 01:37:00,VALID,916.391,VALID,0,VALID,99.3327,VALID,0.0679233,VALID,18.0823,VALID,10,VALID,0.072218,
2009-03-08, 01:38:00,VALID,916.367,VALID,0,VALID,100,VALID,0,VALID,18.1191,VALID,16,VALID,0,
2009-03-08, 01:39:00,VALID,916.362,VALID,0,VALID,99.8678,VALID,-0.0509425,VALID,18.152,VALID,22,VALID,0,
2009-03-08, 01:40:00,VALID,916.356,VALID,0,VALID,99.9313,VALID,-0.0679233,VALID,18.1682,VALID,21,VALID,0,
2009-03-08, 01:41:00,VALID,916.336,VALID,0,VALID,99.897,VALID,0,VALID,18.1812,VALID,21,VALID,0,
2009-03-08, 01:42:00,VALID,916.309,VALID,0,VALID,99.6862,VALID,-0.0169808,VALID,18.1684,VALID,21,VALID,0,
2009-03-08, 01:43:00,VALID,916.297,VALID,0,VALID,99.7866,VALID,-0.0679233,VALID,18.1585,VALID,21,VALID,0,
2009-03-08, 01:44:00,VALID,916.279,VALID,0,VALID,99.9662,VALID,-0.0679233,VALID,18.1715,VALID,21,VALID,0,
2009-03-08, 01:45:00,VALID,916.236,VALID,0,VALID,100,VALID,-0.0679233,VALID,18.1814,VALID,13,VALID,0,
2009-03-08, 01:46:00,VALID,916.212,VALID,0,VALID,99.5483,VALID,-0.0509425,VALID,18.1457,VALID,360,VALID,0,
2009-03-08, 01:47:00,VALID,916.187,VALID,0,VALID,99.3807,VALID,-0.0679233,VALID,18.0225,VALID,5,VALID,0,
2009-03-08, 01:48:00,VALID,916.163,VALID,0,VALID,100,VALID,-0.0509425,VALID,18.032,VALID,5,VALID,0,
2009-03-08, 01:49:00,VALID,916.14,VALID,0,VALID,100,VALID,-0.0679233,VALID,18.0482,VALID,6,VALID,0,
2009-03-08, 01:50:00,VALID,916.122,VALID,0,VALID,100,VALID,-0.0509425,VALID,18.0353,VALID,6,VALID,0,
2009-03-08, 01:51:00,VALID,916.11,VALID,0,VALID,100,VALID,-0.0339617,VALID,18.0093,VALID,6,VALID,0,
2009-03-08, 01:52:00,VALID,916.084,VALID,0,VALID,100,VALID,-0.0509425,VALID,18.0255,VALID,6,VALID,0,
2009-03-08, 01:53:00,VALID,916.055,VALID,0,VALID,99.9039,VALID,-0.0169808,VALID,18.0063,VALID,10,VALID,0,
2009-03-08, 01:54:00,VALID,916.036,VALID,0,VALID,99.5196,VALID,-0.0509425,VALID,17.88,VALID,27,VALID,0,
2009-03-08, 01:55:00,VALID,916.046,VALID,0,VALID,100,VALID,-0.0509425,VALID,17.909,VALID,15,VALID,0,
2009-03-08, 01:56:00,VALID,916.043,VALID,0,VALID,100,VALID,-0.0679233,VALID,17.9771,VALID,12,VALID,0,
2009-03-08, 01:57:00,VALID,916.065,VALID,0,VALID,100,VALID,-0.0339617,VALID,18.032,VALID,12,VALID,0,
2009-03-08, 01:58:00,VALID,916.063,VALID,0,VALID,100,VALID,-0.0169808,VALID,18.0482,VALID,12,VALID,0,
2009-03-08, 01:59:00,VALID,916.047,VALID,0,VALID,100,VALID,-0.0339617,VALID,18.0255,VALID,12,VALID,0,
2009-03-08, 02:00:00,VALID,916.041,VALID,0,VALID,99.8662,VALID,-0.0169808,VALID,17.9966,VALID,12,VALID,0,
2009-03-08, 02:01:00,VALID,916.045,VALID,0,VALID,99.9209,VALID,-0.0339617,VALID,17.9639,VALID,10,VALID,0,
2009-03-08, 02:02:00,VALID,916.023,VALID,0,VALID,100,VALID,-0.0339617,VALID,17.9996,VALID,286,VALID,0,
2009-03-08, 02:03:00,VALID,916.002,VALID,0,VALID,100,VALID,-0.0339617,VALID,18.0647,VALID,284,VALID,0,
2009-03-08, 02:04:00,VALID,915.962,VALID,0,VALID,100,VALID,-0.0679233,VALID,18.0904,VALID,343,VALID,0,
2009-03-08, 02:05:00,VALID,915.944,VALID,0,VALID,99.9674,VALID,-0.0509425,VALID,18.0417,VALID,19,VALID,0,
2009-03-08, 02:06:00,VALID,915.926,VALID,0,VALID,99.9446,VALID,-0.0679233,VALID,17.9868,VALID,24,VALID,0,
2009-03-08, 02:07:00,VALID,915.928,VALID,0,VALID,100,VALID,-0.0849042,VALID,17.9672,VALID,24,VALID,0,
2009-03-08, 02:08:00,VALID,915.939,VALID,0,VALID,100,VALID,-0.0679233,VALID,17.9577,VALID,24,VALID,0,
2009-03-08, 02:09:00,VALID,915.947,VALID,0,VALID,100,VALID,-0.0339617,VALID,17.9315,VALID,24,VALID,0,
2009-03-08, 02:10:00,VALID,915.935,VALID,0,VALID,100,VALID,-0.0169808,VALID,17.9155,VALID,24,VALID,0,
2009-03-08, 02:11:00,VALID,915.922,VALID,0,VALID,100,VALID,-0.0169808,VALID,17.8796,VALID,24,VALID,0,
2009-03-08, 02:12:00,VALID,915.894,VALID,0,VALID,99.9194,VALID,-0.0509425,VALID,17.7953,VALID,30,VALID,0,
2009-03-08, 02:13:00,VALID,915.892,VALID,0,VALID,99.7002,VALID,-0.0509425,VALID,17.7082,VALID,44,VALID,0,
2009-03-08, 02:14:00,VALID,915.876,VALID,0,VALID,98.9957,VALID,-0.0679233,VALID,17.5231,VALID,45,VALID,0,
2009-03-08, 02:15:00,VALID,915.868,VALID,0,VALID,99.7823,VALID,-0.0509425,VALID,17.4321,VALID,45,VALID,0,
2009-03-08, 02:16:00,VALID,915.878,VALID,0,VALID,100,VALID,0,VALID,17.4516,VALID,45,VALID,0,
2009-03-08, 02:17:00,VALID,915.862,VALID,0,VALID,100,VALID,0,VALID,17.4122,VALID,45,VALID,0,
2009-03-08, 02:18:00,VALID,915.837,VALID,0,VALID,100,VALID,-0.0169808,VALID,17.3802,VALID,45,VALID,0,
2009-03-08, 02:19:00,VALID,915.834,VALID,0,VALID,99.7948,VALID,-0.0339617,VALID,17.283,VALID,45,VALID,0,
2009-03-08, 02:20:00,VALID,915.823,VALID,0,VALID,99.8822,VALID,-0.0679233,VALID,17.1825,VALID,45,VALID,0,
2009-03-08, 02:21:00,VALID,915.82,VALID,0,VALID,100,VALID,-0.0339617,VALID,17.1596,VALID,45,VALID,0,
2009-03-08, 02:22:00,VALID,915.804,VALID,0,VALID,100,VALID,-0.0509425,VALID,17.1825,VALID,45,VALID,0,
2009-03-08, 02:23:00,VALID,915.795,VALID,0,VALID,100,VALID,0.0169808,VALID,17.2212,VALID,45,VALID,0,
2009-03-08, 02:24:00,VALID,915.789,VALID,0,VALID,100,VALID,-0.0169808,VALID,17.2408,VALID,45,VALID,0,
2009-03-08, 02:25:00,VALID,915.772,VALID,0,VALID,100,VALID,0,VALID,17.2985,VALID,45,VALID,0,
2009-03-08, 02:26:00,VALID,915.759,VALID,0,VALID,100,VALID,0,VALID,17.3833,VALID,45,VALID,0,
2009-03-08, 02:27:00,VALID,915.756,VALID,0,VALID,100,VALID,0,VALID,17.3863,VALID,45,VALID,0,
2009-03-08, 02:28:00,VALID,915.754,VALID,0,VALID,100,VALID,0,VALID,17.3833,VALID,45,VALID,0,
2009-03-08, 02:29:00,VALID,915.732,VALID,0,VALID,100,VALID,-0.0169808,VALID,17.3543,VALID,45,VALID,0,
2009-03-08, 02:30:00,VALID,915.726,VALID,0,VALID,100,VALID,-0.0509425,VALID,17.3284,VALID,45,VALID,0,
2009-03-08, 02:31:00,VALID,915.715,VALID,0,VALID,100,VALID,-0.0169808,VALID,17.3219,VALID,45,VALID,0,
2009-03-08, 02:32:00,VALID,915.714,VALID,0,VALID,100,VALID,-0.0339617,VALID,17.286,VALID,39,VALID,0,
2009-03-08, 02:33:00,VALID,915.71,VALID,0,VALID,100,VALID,0,VALID,17.2374,VALID,3,VALID,0,
2009-03-08, 02:34:00,VALID,915.701,VALID,0,VALID,100,VALID,0,VALID,17.2341,VALID,1,VALID,0,
2009-03-08, 02:35:00,VALID,915.676,VALID,0,VALID,100,VALID,-0.0339617,VALID,17.283,VALID,1,VALID,0,
2009-03-08, 02:36:00,VALID,915.653,VALID,0,VALID,100,VALID,-0.0339617,VALID,17.2475,VALID,1,VALID,0,
2009-03-08, 02:37:00,VALID,915.655,VALID,0,VALID,99.8622,VALID,-0.0169808,VALID,17.1306,VALID,17,VALID,0,
2009-03-08, 02:38:00,VALID,915.673,VALID,0,VALID,100,VALID,-0.0339617,VALID,17.1954,VALID,17,VALID,0,
2009-03-08, 02:39:00,VALID,915.672,VALID,0,VALID,100,VALID,0,VALID,17.2212,VALID,8,VALID,0,
2009-03-08, 02:40:00,VALID,915.675,VALID,0,VALID,100,VALID,-0.0339617,VALID,17.2962,VALID,6,VALID,0,
2009-03-08, 02:41:00,VALID,915.677,VALID,0,VALID,100,VALID,0,VALID,17.3573,VALID,303,VALID,0,
2009-03-08, 02:42:00,VALID,915.674,VALID,0,VALID,100,VALID,-0.0169808,VALID,17.4808,VALID,263,VALID,0,
2009-03-08, 02:43:00,VALID,915.679,VALID,0,VALID,100,VALID,0,VALID,17.5616,VALID,243,VALID,0,
2009-03-08, 02:44:00,VALID,915.663,VALID,0,VALID,100,VALID,0,VALID,17.6524,VALID,260,VALID,0,
2009-03-08, 02:45:00,VALID,915.639,VALID,0,VALID,100,VALID,-0.0509425,VALID,17.6881,VALID,270,VALID,0,
2009-03-08, 02:46:00,VALID,915.618,VALID,0,VALID,100,VALID,-0.0169808,VALID,17.7075,VALID,274,VALID,0,
2009-03-08, 02:47:00,VALID,915.612,VALID,0,VALID,100,VALID,-0.0849042,VALID,17.6301,VALID,274,VALID,0,
2009-03-08, 02:48:00,VALID,915.621,VALID,0,VALID,100,VALID,0,VALID,17.6394,VALID,274,VALID,0,
2009-03-08, 02:49:00,VALID,915.624,VALID,0,VALID,100,VALID,0.0169808,VALID,17.6424,VALID,274,VALID,0,
2009-03-08, 02:50:00,VALID,915.622,VALID,0,VALID,100,VALID,0.0169808,VALID,17.727,VALID,274,VALID,0,
2009-03-08, 02:51:00,VALID,915.593,VALID,0,VALID,100,VALID,-0.0169808,VALID,17.7594,VALID,275,VALID,0,
2009-03-08, 02:52:00,VALID,915.592,VALID,0,VALID,100,VALID,-0.0339617,VALID,17.6818,VALID,287,VALID,0,
2009-03-08, 02:53:00,VALID,915.58,VALID,0,VALID,100,VALID,-0.0339617,VALID,17.5488,VALID,330,VALID,0,
2009-03-08, 02:54:00,VALID,915.587,VALID,0,VALID,100,VALID,-0.0169808,VALID,17.5942,VALID,351,VALID,0,
2009-03-08, 02:55:00,VALID,915.583,VALID,0,VALID,100,VALID,0,VALID,17.5875,VALID,351,VALID,0,
2009-03-08, 02:56:00,VALID,915.588,VALID,0,VALID,100,VALID,0,VALID,17.5975,VALID,351,VALID,0,
2009-03-08, 02:57:00,VALID,915.593,VALID,0,VALID,100,VALID,0,VALID,17.5975,VALID,351,VALID,0,
2009-03-08, 02:58:00,VALID,915.613,VALID,0,VALID,100,VALID,-0.0169808,VALID,17.5261,VALID,351,VALID,0,
2009-03-08, 02:59:00,VALID,915.62,VALID,0,VALID,100,VALID,0,VALID,17.4643,VALID,351,VALID,0,
2009-03-08, 03:00:00,VALID,915.618,VALID,0,VALID,100,VALID,-0.0169808,VALID,17.3444,VALID,24,VALID,0,
2009-03-08, 03:01:00,VALID,915.619,VALID,0,VALID,100,VALID,-0.0339617,VALID,17.163,VALID,32,VALID,0,
2009-03-08, 03:02:00,VALID,915.613,VALID,0,VALID,100,VALID,-0.0509425,VALID,17.1987,VALID,30,VALID,0,
2009-03-08, 03:03:00,VALID,915.601,VALID,0,VALID,100,VALID,-0.0169808,VALID,17.2732,VALID,30,VALID,0,
2009-03-08, 03:04:00,VALID,915.577,VALID,0,VALID,100,VALID,-0.0169808,VALID,17.3022,VALID,30,VALID,0,
2009-03-08, 03:05:00,VALID,915.561,VALID,0,VALID,100,VALID,0.0169808,VALID,17.3186,VALID,30,VALID,0,
2009-03-08, 03:06:00,VALID,915.552,VALID,0,VALID,100,VALID,-0.0339617,VALID,17.3539,VALID,30,VALID,0,
2009-03-08, 03:07:00,VALID,915.551,VALID,0,VALID,100,VALID,0,VALID,17.4027,VALID,30,VALID,0,
2009-03-08, 03:08:00,VALID,915.533,VALID,0,VALID,100,VALID,0,VALID,17.3738,VALID,30,VALID,0,
2009-03-08, 03:09:00,VALID,915.547,VALID,0,VALID,100,VALID,0,VALID,17.3636,VALID,30,VALID,0,
2009-03-08, 03:10:00,VALID,915.552,VALID,0,VALID,100,VALID,-0.0169808,VALID,17.3606,VALID,30,VALID,0,
2009-03-08, 03:11:00,VALID,915.561,VALID,0,VALID,100,VALID,-0.0339617,VALID,17.3666,VALID,30,VALID,0,
2009-03-08, 03:12:00,VALID,915.578,VALID,0,VALID,100,VALID,0.0169808,VALID,17.3763,VALID,30,VALID,0,
2009-03-08, 03:13:00,VALID,915.567,VALID,0,VALID,100,VALID,0.0169808,VALID,17.399,VALID,30,VALID,0,
2009-03-08, 03:14:00,VALID,915.576,VALID,0,VALID,100,VALID,0,VALID,17.3119,VALID,30,VALID,0,
2009-03-08, 03:15:00,VALID,915.593,VALID,0,VALID,100,VALID,0,VALID,17.2145,VALID,30,VALID,0,
2009-03-08, 03:16:00,VALID,915.616,VALID,0,VALID,100,VALID,0,VALID,17.1466,VALID,30,VALID,0,
2009-03-08, 03:17:00,VALID,915.619,VALID,0,VALID,100,VALID,-0.0169808,VALID,17.082,VALID,30,VALID,0,
2009-03-08, 03:18:00,VALID,915.602,VALID,0,VALID,100,VALID,-0.0169808,VALID,17.0623,VALID,30,VALID,0,
2009-03-08, 03:19:00,VALID,915.599,VALID,0,VALID,100,VALID,-0.0169808,VALID,17.0688,VALID,30,VALID,0,
2009-03-08, 03:20:00,VALID,915.593,VALID,0,VALID,100,VALID,-0.0509425,VALID,17.0753,VALID,30,VALID,0,
2009-03-08, 03:21:00,VALID,915.586,VALID,0,VALID,100,VALID,-0.0169808,VALID,17.1012,VALID,30,VALID,0,
2009-03-08, 03:22:00,VALID,915.583,VALID,0,VALID,100,VALID,0,VALID,17.1304,VALID,30,VALID,0,
2009-03-08, 03:23:00,VALID,915.583,VALID,0,VALID,100,VALID,-0.0169808,VALID,17.1468,VALID,30,VALID,0,
2009-03-08, 03:24:00,VALID,915.594,VALID,0,VALID,100,VALID,-0.0339617,VALID,17.2084,VALID,30,VALID,0,
2009-03-08, 03:25:00,VALID,915.592,VALID,0,VALID,100,VALID,-0.0849042,VALID,17.2021,VALID,30,VALID,0,
2009-03-08, 03:26:00,VALID,915.586,VALID,0,VALID,100,VALID,-0.0339617,VALID,17.1792,VALID,30,VALID,0,
2009-03-08, 03:27:00,VALID,915.58,VALID,0,VALID,100,VALID,-0.0509425,VALID,17.2084,VALID,30,VALID,0,
2009-03-08, 03:28:00,VALID,915.581,VALID,0,VALID,100,VALID,-0.0169808,VALID,17.2663,VALID,30,VALID,0,
2009-03-08, 03:29:00,VALID,915.555,VALID,0,VALID,100,VALID,-0.0169808,VALID,17.3411,VALID,30,VALID,0,
2009-03-08, 03:30:00,VALID,915.536,VALID,0,VALID,100,VALID,-0.0509425,VALID,17.3154,VALID,30,VALID,0,
2009-03-08, 03:31:00,VALID,915.539,VALID,0,VALID,100,VALID,-0.0509425,VALID,17.1503,VALID,30,VALID,0,
2009-03-08, 03:32:00,VALID,915.533,VALID,0,VALID,100,VALID,-0.0509425,VALID,17.0301,VALID,30,VALID,0,
2009-03-08, 03:33:00,VALID,915.541,VALID,0,VALID,100,VALID,-0.0509425,VALID,17.0139,VALID,30,VALID,0,
2009-03-08, 03:34:00,VALID,915.534,VALID,0,VALID,100,VALID,-0.0509425,VALID,16.9944,VALID,30,VALID,0,
2009-03-08, 03:35:00,VALID,915.535,VALID,0,VALID,100,VALID,-0.0339617,VALID,17.0301,VALID,30,VALID,0,
2009-03-08, 03:36:00,VALID,915.539,VALID,0,VALID,100,VALID,-0.0679233,VALID,17.0755,VALID,30,VALID,0,
2009-03-08, 03:37:00,VALID,915.539,VALID,0,VALID,100,VALID,-0.0169808,VALID,17.0139,VALID,30,VALID,0,
2009-03-08, 03:38:00,VALID,915.533,VALID,0,VALID,100,VALID,-0.0339617,VALID,16.9523,VALID,30,VALID,0,
2009-03-08, 03:39:00,VALID,915.54,VALID,0,VALID,100,VALID,-0.0339617,VALID,16.8941,VALID,30,VALID,0,
2009-03-08, 03:40:00,VALID,915.541,VALID,0,VALID,100,VALID,-0.0849042,VALID,16.9004,VALID,30,VALID,0,
2009-03-08, 03:41:00,VALID,915.555,VALID,0,VALID,100,VALID,-0.0679233,VALID,16.9296,VALID,29,VALID,0,
2009-03-08, 03:42:00,VALID,915.548,VALID,0,VALID,100,VALID,-0.0509425,VALID,16.9912,VALID,344,VALID,0,
2009-03-08, 03:43:00,VALID,915.557,VALID,0,VALID,99.9774,VALID,-0.0849042,VALID,16.8939,VALID,344,VALID,0,
2009-03-08, 03:44:00,VALID,915.56,VALID,0,VALID,99.9054,VALID,-0.0679233,VALID,16.6897,VALID,344,VALID,0,
2009-03-08, 03:45:00,VALID,915.563,VALID,0,VALID,100,VALID,-0.0169808,VALID,16.6376,VALID,344,VALID,0,
2009-03-08, 03:46:00,VALID,915.564,VALID,0,VALID,100,VALID,0,VALID,16.6249,VALID,344,VALID,0,
2009-03-08, 03:47:00,VALID,915.555,VALID,0,VALID,100,VALID,-0.0339617,VALID,16.6216,VALID,344,VALID,0,
2009-03-08, 03:48:00,VALID,915.553,VALID,0,VALID,100,VALID,-0.0339617,VALID,16.6867,VALID,344,VALID,0,
2009-03-08, 03:49:00,VALID,915.564,VALID,0,VALID,100,VALID,-0.0339617,VALID,16.7254,VALID,344,VALID,0,
2009-03-08, 03:50:00,VALID,915.562,VALID,0,VALID,100,VALID,0,VALID,16.7803,VALID,344,VALID,0,
2009-03-08, 03:51:00,VALID,915.549,VALID,0,VALID,100,VALID,-0.0169808,VALID,16.7865,VALID,344,VALID,0,